BTIKM1 EVRA-EKCH

Flight info

Callsign BTIKM1
Flight time 1h 15m
Altitude 36000
Route VALED DCT VARUS DCT ADAXA DCT NINTA DCT KOLJA DCT ELVIX L975 TIDVU
Aircraft A320/M-SDE3FGHIRWY/LB1

Departure

Time 2026-04-25 08:11
Airport Riga International Airport (EVRA)

Arrival

Time 2026-04-25 09:26
Airport Copenhagen Kastrup Airport (EKCH)
Time Latitude Longitude Altitude Speed Heading
2026-04-25 07:40 56.92440 23.97783 45 ft 0 kts
2026-04-25 07:57 56.92426 23.97781 44 ft 2 kts
2026-04-25 07:57 56.92409 23.97778 53 ft 2 kts
2026-04-25 07:57 56.92399 23.97776 37 ft 0 kts 359°
2026-04-25 07:58 56.92391 23.97776 42 ft 2 kts 326°
2026-04-25 07:58 56.92382 23.97793 39 ft 0 kts 271°
2026-04-25 08:03 56.92384 23.97760 44 ft 10 kts 276°
2026-04-25 08:03 56.92391 23.97630 44 ft 9 kts 275°
2026-04-25 08:04 56.92410 23.97533 44 ft 7 kts 318°
2026-04-25 08:04 56.92428 23.97517 44 ft 1 kts 337°
2026-04-25 08:04 56.92432 23.97515 44 ft 0 kts 337°
2026-04-25 08:04 56.92435 23.97517 44 ft 2 kts
2026-04-25 08:05 56.92446 23.97520 44 ft 1 kts
2026-04-25 08:05 56.92477 23.97525 42 ft 13 kts
2026-04-25 08:05 56.92567 23.97542 44 ft 12 kts
2026-04-25 08:05 56.92644 23.97554 44 ft 10 kts
2026-04-25 08:06 56.92722 23.97566 44 ft 11 kts
2026-04-25 08:06 56.92796 23.97579 42 ft 12 kts
2026-04-25 08:06 56.92909 23.97598 42 ft 16 kts
2026-04-25 08:06 56.93018 23.97616 41 ft 15 kts
2026-04-25 08:07 56.93115 23.97631 44 ft 13 kts
2026-04-25 08:07 56.93196 23.97594 44 ft 11 kts 339°
2026-04-25 08:07 56.93267 23.97570 44 ft 10 kts 358°
2026-04-25 08:07 56.93328 23.97574 44 ft 8 kts
2026-04-25 08:08 56.93380 23.97582 44 ft 7 kts
2026-04-25 08:08 56.93420 23.97586 44 ft 5 kts 359°
2026-04-25 08:08 56.93448 23.97566 42 ft 6 kts 329°
2026-04-25 08:08 56.93481 23.97501 44 ft 0 kts 292°
2026-04-25 08:09 56.93489 23.97424 44 ft 12 kts 276°
2026-04-25 08:09 56.93450 23.97299 43 ft 11 kts 204°
2026-04-25 08:09 56.93403 23.97287 44 ft 9 kts 186°
2026-04-25 08:10 56.93116 23.97238 45 ft 76 kts 185°
2026-04-25 08:10 56.92385 23.97117 45 ft 132 kts 185°
2026-04-25 08:10 56.91328 23.96946 166 ft 164 kts 185°
2026-04-25 08:10 56.90179 23.96765 632 ft 173 kts 186°
2026-04-25 08:11 56.88962 23.96577 1314 ft 177 kts 187°
2026-04-25 08:11 56.87669 23.96358 1769 ft 195 kts 189°
2026-04-25 08:11 56.86295 23.96103 2399 ft 200 kts 194°
2026-04-25 08:11 56.85008 23.95230 3092 ft 198 kts 215°
2026-04-25 08:12 56.83951 23.93491 3549 ft 215 kts 233°
2026-04-25 08:12 56.82989 23.91240 4008 ft 237 kts 233°
2026-04-25 08:12 56.81956 23.88817 4792 ft 244 kts 234°
2026-04-25 08:12 56.80902 23.86354 5646 ft 247 kts 234°
2026-04-25 08:13 56.79833 23.83859 6490 ft 251 kts 235°
2026-04-25 08:13 56.78751 23.81336 7290 ft 254 kts 235°
2026-04-25 08:13 56.77667 23.78808 8074 ft 258 kts 235°
2026-04-25 08:14 56.75196 23.73893 9660 ft 267 kts 230°
2026-04-25 08:14 56.73869 23.71381 9996 ft 286 kts 230°
2026-04-25 08:14 56.72436 23.68653 10170 ft 309 kts 230°
2026-04-25 08:14 56.70906 23.65751 10572 ft 323 kts 230°
2026-04-25 08:15 56.69333 23.62789 11240 ft 327 kts 230°
2026-04-25 08:15 56.67742 23.59805 11966 ft 329 kts 230°
2026-04-25 08:15 56.66155 23.56835 12679 ft 332 kts 230°
2026-04-25 08:15 56.64537 23.53808 13384 ft 335 kts 230°
2026-04-25 08:16 56.62908 23.50758 13999 ft 338 kts 230°
2026-04-25 08:16 56.61269 23.47681 14599 ft 340 kts 231°
2026-04-25 08:16 56.59683 23.44476 15189 ft 341 kts 234°
2026-04-25 08:16 56.58423 23.40859 15773 ft 338 kts 250°
2026-04-25 08:17 56.57763 23.36778 16359 ft 337 kts 263°
2026-04-25 08:17 56.57663 23.32535 16951 ft 338 kts 275°
2026-04-25 08:17 56.58117 23.28395 17511 ft 341 kts 288°
2026-04-25 08:17 56.58962 23.24351 18099 ft 344 kts 290°
2026-04-25 08:18 56.59821 23.20293 18627 ft 345 kts 290°
2026-04-25 08:18 56.60669 23.16201 19175 ft 347 kts 289°
2026-04-25 08:18 56.61429 23.12033 19727 ft 348 kts 287°
2026-04-25 08:18 56.62124 23.07808 20267 ft 350 kts 286°
2026-04-25 08:19 56.62795 23.03541 20796 ft 351 kts 286°
2026-04-25 08:19 56.63466 22.99264 21309 ft 353 kts 286°
2026-04-25 08:19 56.64147 22.94957 21812 ft 355 kts 287°
2026-04-25 08:19 56.64828 22.90680 22302 ft 356 kts 287°
2026-04-25 08:20 56.65528 22.86338 22773 ft 358 kts 287°
2026-04-25 08:20 56.66235 22.81975 23226 ft 360 kts 287°
2026-04-25 08:20 56.66948 22.77590 23605 ft 362 kts 287°
2026-04-25 08:20 56.67662 22.73191 23993 ft 363 kts 287°
2026-04-25 08:21 56.68364 22.68835 24365 ft 364 kts 287°
2026-04-25 08:21 56.69074 22.64414 24771 ft 364 kts 288°
2026-04-25 08:21 56.69778 22.59999 25197 ft 363 kts 288°
2026-04-25 08:21 56.70481 22.55572 25578 ft 364 kts 288°
2026-04-25 08:22 56.71184 22.51139 25932 ft 365 kts 287°
2026-04-25 08:22 56.71645 22.46566 26271 ft 369 kts 277°
2026-04-25 08:22 56.71615 22.41851 26600 ft 375 kts 268°
2026-04-25 08:22 56.71240 22.37189 26918 ft 378 kts 266°
2026-04-25 08:23 56.70844 22.32444 27244 ft 379 kts 266°
2026-04-25 08:23 56.70449 22.27694 27565 ft 380 kts 266°
2026-04-25 08:23 56.70055 22.22913 27875 ft 381 kts 266°
2026-04-25 08:23 56.69660 22.18133 28167 ft 383 kts 266°
2026-04-25 08:24 56.69263 22.13344 28453 ft 384 kts 266°
2026-04-25 08:24 56.68861 22.08532 28729 ft 385 kts 266°
2026-04-25 08:24 56.68455 22.03697 28996 ft 386 kts 267°
2026-04-25 08:24 56.68054 21.98944 29357 ft 384 kts 267°
2026-04-25 08:25 56.67644 21.94144 29656 ft 383 kts 267°
2026-04-25 08:25 56.67233 21.89362 29931 ft 382 kts 267°
2026-04-25 08:25 56.66824 21.84586 30169 ft 382 kts 266°
2026-04-25 08:25 56.66414 21.79810 30410 ft 382 kts 266°
2026-04-25 08:26 56.66002 21.75067 30640 ft 382 kts 266°
2026-04-25 08:26 56.65580 21.70243 30870 ft 383 kts 266°
2026-04-25 08:26 56.65166 21.65519 31087 ft 383 kts 266°
2026-04-25 08:26 56.64746 21.60732 31314 ft 384 kts 265°
2026-04-25 08:27 56.64323 21.55931 31548 ft 384 kts 265°
2026-04-25 08:27 56.63898 21.51128 31778 ft 385 kts 265°
2026-04-25 08:27 56.63471 21.46335 32002 ft 385 kts 265°
2026-04-25 08:27 56.63036 21.41513 32223 ft 386 kts 264°
2026-04-25 08:28 56.62606 21.36755 32387 ft 386 kts 264°
2026-04-25 08:28 56.62171 21.31938 32627 ft 386 kts 264°
2026-04-25 08:28 56.61735 21.27119 32842 ft 387 kts 264°
2026-04-25 08:28 56.61293 21.22273 33055 ft 388 kts 264°
2026-04-25 08:29 56.60849 21.17427 33266 ft 388 kts 264°
2026-04-25 08:29 56.60410 21.12638 33485 ft 389 kts 263°
2026-04-25 08:29 56.59963 21.07788 33687 ft 389 kts 263°
2026-04-25 08:29 56.59511 21.02936 33856 ft 390 kts 263°
2026-04-25 08:30 56.59054 20.98070 34018 ft 391 kts 263°
2026-04-25 08:30 56.58595 20.93195 34179 ft 392 kts 263°
2026-04-25 08:30 56.58136 20.88311 34338 ft 393 kts 263°
2026-04-25 08:30 56.57674 20.83404 34491 ft 394 kts 263°
2026-04-25 08:31 56.57210 20.78498 34637 ft 395 kts 263°
2026-04-25 08:31 56.56742 20.73575 34774 ft 396 kts 263°
2026-04-25 08:31 56.56277 20.68707 34929 ft 397 kts 263°
2026-04-25 08:31 56.55801 20.63767 35064 ft 397 kts 263°
2026-04-25 08:32 56.55321 20.58813 35200 ft 398 kts 263°
2026-04-25 08:32 56.54845 20.53911 35330 ft 399 kts 263°
2026-04-25 08:32 56.54362 20.48950 35465 ft 399 kts 263°
2026-04-25 08:32 56.53874 20.43965 35582 ft 401 kts 263°
2026-04-25 08:33 56.53383 20.38986 35602 ft 402 kts 263°
2026-04-25 08:33 56.52402 20.29067 35589 ft 401 kts 263°
2026-04-25 08:34 56.51410 20.19119 35601 ft 401 kts 263°
2026-04-25 08:34 56.50411 20.09188 35610 ft 400 kts 263°
2026-04-25 08:35 56.49402 19.99267 35610 ft 401 kts 263°
2026-04-25 08:35 56.48285 19.89359 35614 ft 403 kts 256°
2026-04-25 08:36 56.46537 19.79756 35618 ft 404 kts 256°
2026-04-25 08:36 56.44771 19.70070 35623 ft 404 kts 256°
2026-04-25 08:37 56.43010 19.60468 35629 ft 404 kts 256°
2026-04-25 08:37 56.41231 19.50817 35626 ft 404 kts 256°
2026-04-25 08:38 56.39451 19.41180 35591 ft 404 kts 256°
2026-04-25 08:38 56.37672 19.31631 35604 ft 403 kts 256°
2026-04-25 08:39 56.35874 19.22048 35618 ft 403 kts 256°
2026-04-25 08:39 56.34073 19.12477 35625 ft 402 kts 256°
2026-04-25 08:40 56.32280 19.02974 35632 ft 402 kts 256°
2026-04-25 08:40 56.30464 18.93433 35632 ft 402 kts 256°
2026-04-25 08:41 56.29100 18.83743 35637 ft 397 kts 263°
2026-04-25 08:41 56.28037 18.74024 35641 ft 397 kts 263°
2026-04-25 08:42 56.26948 18.64268 35638 ft 397 kts 262°
2026-04-25 08:42 56.25858 18.54565 35632 ft 397 kts 262°
2026-04-25 08:43 56.24754 18.44834 35592 ft 396 kts 262°
2026-04-25 08:43 56.23636 18.35093 35611 ft 396 kts 262°
2026-04-25 08:44 56.22489 18.25452 35630 ft 398 kts 261°
2026-04-25 08:44 56.21081 18.15818 35635 ft 399 kts 259°
2026-04-25 08:45 56.19575 18.06249 35639 ft 399 kts 259°
2026-04-25 08:45 56.18081 17.96629 35635 ft 399 kts 259°
2026-04-25 08:46 56.16618 17.87015 35645 ft 399 kts 259°
2026-04-25 08:46 56.15167 17.77466 35646 ft 399 kts 259°
2026-04-25 08:47 56.13693 17.67854 35650 ft 399 kts 259°
2026-04-25 08:47 56.12456 17.59888 35650 ft 399 kts 259°
2026-04-25 08:48 56.10715 17.48733 35619 ft 399 kts 259°
2026-04-25 08:48 56.09470 17.40750 35632 ft 399 kts 259°
2026-04-25 08:49 56.07968 17.31181 35634 ft 399 kts 259°
2026-04-25 08:49 56.06453 17.21615 35671 ft 398 kts 259°
2026-04-25 08:50 56.04940 17.12141 35672 ft 398 kts 259°
2026-04-25 08:50 56.03418 17.02613 35667 ft 397 kts 259°
2026-04-25 08:51 56.01893 16.93119 35667 ft 397 kts 259°
2026-04-25 08:51 56.00358 16.83685 35683 ft 396 kts 259°
2026-04-25 08:52 55.98655 16.74272 35685 ft 399 kts 256°
2026-04-25 08:52 55.96734 16.65034 35654 ft 400 kts 255°
2026-04-25 08:53 55.94761 16.55707 35667 ft 400 kts 255°
2026-04-25 08:53 55.92840 16.46433 35684 ft 400 kts 255°
2026-04-25 08:54 55.90935 16.37113 35013 ft 397 kts 256°
2026-04-25 08:54 55.89998 16.32554 34385 ft 395 kts 256°
2026-04-25 08:54 55.89046 16.27962 33771 ft 393 kts 256°
2026-04-25 08:54 55.88097 16.23414 33068 ft 391 kts 256°
2026-04-25 08:55 55.87154 16.18882 32308 ft 390 kts 256°
2026-04-25 08:55 55.86211 16.14357 31512 ft 389 kts 256°
2026-04-25 08:55 55.85267 16.09854 30917 ft 385 kts 256°
2026-04-25 08:55 55.84333 16.05420 30366 ft 380 kts 256°
2026-04-25 08:56 55.83413 16.01047 29825 ft 375 kts 256°
2026-04-25 08:56 55.82516 15.96778 29200 ft 370 kts 256°
2026-04-25 08:56 55.81617 15.92504 28577 ft 367 kts 256°
2026-04-25 08:56 55.80723 15.88267 27884 ft 364 kts 256°
2026-04-25 08:57 55.79831 15.84059 27211 ft 363 kts 256°
2026-04-25 08:57 55.78944 15.79874 26605 ft 360 kts 256°
2026-04-25 08:57 55.78062 15.75721 26019 ft 357 kts 256°
2026-04-25 08:57 55.77192 15.71643 25471 ft 355 kts 256°
2026-04-25 08:58 55.76317 15.67559 24927 ft 352 kts 256°
2026-04-25 08:58 55.75447 15.63505 24395 ft 350 kts 256°
2026-04-25 08:58 55.74582 15.59477 23876 ft 347 kts 256°
2026-04-25 08:58 55.73725 15.55481 23383 ft 345 kts 256°
2026-04-25 08:59 55.72871 15.51503 22822 ft 343 kts 255°
2026-04-25 08:59 55.72019 15.47557 22267 ft 341 kts 255°
2026-04-25 08:59 55.71182 15.43686 21768 ft 338 kts 255°
2026-04-25 08:59 55.70338 15.39789 21261 ft 336 kts 255°
2026-04-25 09:00 55.69504 15.35935 20759 ft 334 kts 255°
2026-04-25 09:00 55.68671 15.32101 20269 ft 332 kts 255°
2026-04-25 09:00 55.67842 15.28290 19773 ft 330 kts 255°
2026-04-25 09:00 55.67018 15.24505 19329 ft 328 kts 255°
2026-04-25 09:01 55.66199 15.20758 18863 ft 326 kts 254°
2026-04-25 09:01 55.65384 15.17029 18395 ft 324 kts 254°
2026-04-25 09:01 55.64570 15.13314 17941 ft 322 kts 254°
2026-04-25 09:01 55.63771 15.09670 17712 ft 323 kts 254°
2026-04-25 09:02 55.62951 15.05935 17747 ft 327 kts 254°
2026-04-25 09:02 55.62121 15.02175 17746 ft 328 kts 254°
2026-04-25 09:02 55.61292 14.98416 17746 ft 328 kts 254°
2026-04-25 09:02 55.60461 14.94651 17759 ft 328 kts 254°
2026-04-25 09:03 55.59628 14.90890 17760 ft 328 kts 254°
2026-04-25 09:03 55.58795 14.87141 17755 ft 327 kts 254°
2026-04-25 09:03 55.57963 14.83419 17299 ft 324 kts 254°
2026-04-25 09:03 55.57134 14.79716 16804 ft 322 kts 254°
2026-04-25 09:04 55.56322 14.76083 16286 ft 322 kts 254°
2026-04-25 09:04 55.55499 14.72397 15720 ft 323 kts 254°
2026-04-25 09:04 55.54671 14.68694 15168 ft 324 kts 254°
2026-04-25 09:04 55.53841 14.64996 14619 ft 324 kts 254°
2026-04-25 09:05 55.53006 14.61287 14086 ft 325 kts 254°
2026-04-25 09:05 55.52170 14.57571 13557 ft 325 kts 254°
2026-04-25 09:05 55.51334 14.53867 12968 ft 325 kts 253°
2026-04-25 09:05 55.50494 14.50158 12385 ft 324 kts 253°
2026-04-25 09:06 55.49660 14.46471 11889 ft 322 kts 253°
2026-04-25 09:06 55.48841 14.42877 11761 ft 309 kts 253°
2026-04-25 09:06 55.48042 14.39382 11780 ft 306 kts 253°
2026-04-25 09:06 55.47259 14.35946 11788 ft 306 kts 253°
2026-04-25 09:07 55.46470 14.32467 11792 ft 306 kts 254°
2026-04-25 09:07 55.45680 14.28982 11798 ft 306 kts 253°
2026-04-25 09:07 55.44887 14.25492 11801 ft 307 kts 253°
2026-04-25 09:07 55.44088 14.22003 11802 ft 307 kts 253°
2026-04-25 09:08 55.43289 14.18520 11802 ft 307 kts 253°
2026-04-25 09:08 55.42488 14.15035 11802 ft 307 kts 253°
2026-04-25 09:08 55.41721 14.11538 11801 ft 304 kts 258°
2026-04-25 09:08 55.41275 14.07972 11810 ft 300 kts 267°
2026-04-25 09:09 55.41187 14.04321 11811 ft 297 kts 274°
2026-04-25 09:09 55.41196 14.00684 11811 ft 297 kts 273°
2026-04-25 09:09 55.41201 13.97046 11787 ft 295 kts 274°
2026-04-25 09:09 55.41201 13.93446 11554 ft 294 kts 273°
2026-04-25 09:10 55.41199 13.89849 11216 ft 293 kts 273°
2026-04-25 09:10 55.41195 13.86259 10847 ft 291 kts 273°
2026-04-25 09:10 55.41190 13.82708 10480 ft 290 kts 273°
2026-04-25 09:10 55.41182 13.79160 10107 ft 289 kts 273°
2026-04-25 09:11 55.41167 13.72192 9364 ft 282 kts 274°
2026-04-25 09:11 55.41159 13.68767 8964 ft 277 kts 274°
2026-04-25 09:11 55.41178 13.65400 8571 ft 273 kts 275°
2026-04-25 09:12 55.41342 13.62112 8188 ft 267 kts 282°
2026-04-25 09:12 55.41628 13.58905 7804 ft 263 kts 282°
2026-04-25 09:12 55.41910 13.55747 7425 ft 259 kts 282°
2026-04-25 09:12 55.42184 13.52645 7182 ft 251 kts 282°
2026-04-25 09:13 55.42450 13.49615 6728 ft 251 kts 282°
2026-04-25 09:13 55.42717 13.46564 6233 ft 253 kts 282°
2026-04-25 09:13 55.43023 13.43515 5713 ft 253 kts 284°
2026-04-25 09:13 55.43408 13.40529 5195 ft 253 kts 285°
2026-04-25 09:14 55.43829 13.37504 4685 ft 254 kts 286°
2026-04-25 09:14 55.44271 13.34490 4162 ft 254 kts 287°
2026-04-25 09:14 55.44706 13.31527 3635 ft 244 kts 287°
2026-04-25 09:14 55.45117 13.28684 3124 ft 235 kts 287°
2026-04-25 09:15 55.45495 13.25983 2858 ft 216 kts 287°
2026-04-25 09:15 55.45834 13.23533 2722 ft 195 kts 286°
2026-04-25 09:15 55.46138 13.21333 2600 ft 175 kts 287°
2026-04-25 09:15 55.46404 13.19365 2487 ft 154 kts 286°
2026-04-25 09:16 55.46631 13.17654 2343 ft 136 kts 286°
2026-04-25 09:16 55.46836 13.16106 2132 ft 126 kts 286°
2026-04-25 09:16 55.47039 13.14611 2002 ft 126 kts 286°
2026-04-25 09:16 55.47248 13.13106 1987 ft 127 kts 287°
2026-04-25 09:17 55.47667 13.10075 1994 ft 128 kts 286°
2026-04-25 09:17 55.47879 13.08557 1992 ft 128 kts 286°
2026-04-25 09:17 55.48089 13.07040 1992 ft 127 kts 287°
2026-04-25 09:18 55.48291 13.05521 1989 ft 127 kts 287°
2026-04-25 09:18 55.48491 13.04000 1991 ft 127 kts 286°
2026-04-25 09:18 55.48695 13.02488 1989 ft 127 kts 286°
2026-04-25 09:18 55.48912 13.01000 1988 ft 127 kts 289°
2026-04-25 09:19 55.49280 12.99591 1998 ft 127 kts 297°
2026-04-25 09:19 55.49709 12.98236 1997 ft 126 kts 300°
2026-04-25 09:19 55.50164 12.96912 1998 ft 126 kts 301°
2026-04-25 09:19 55.50630 12.95611 1996 ft 125 kts 302°
2026-04-25 09:20 55.51101 12.94322 1995 ft 125 kts 302°
2026-04-25 09:20 55.51577 12.93037 1997 ft 125 kts 302°
2026-04-25 09:20 55.52053 12.91755 1995 ft 125 kts 302°
2026-04-25 09:20 55.52532 12.90471 1997 ft 125 kts 302°
2026-04-25 09:21 55.53006 12.89202 1986 ft 125 kts 302°
2026-04-25 09:21 55.53487 12.87915 1992 ft 126 kts 302°
2026-04-25 09:21 55.53971 12.86620 1995 ft 127 kts 302°
2026-04-25 09:21 55.54456 12.85320 1997 ft 127 kts 301°
2026-04-25 09:22 55.54945 12.84010 2006 ft 128 kts 301°
2026-04-25 09:22 55.55435 12.82697 2006 ft 128 kts 301°
2026-04-25 09:22 55.55920 12.81397 1936 ft 129 kts 302°
2026-04-25 09:22 55.56413 12.80074 1802 ft 129 kts 302°
2026-04-25 09:23 55.56909 12.78742 1653 ft 130 kts 301°
2026-04-25 09:23 55.57408 12.77402 1482 ft 130 kts 301°
2026-04-25 09:23 55.57906 12.76064 1305 ft 130 kts 301°
2026-04-25 09:23 55.58403 12.74729 1118 ft 129 kts 301°
2026-04-25 09:24 55.58892 12.73414 947 ft 129 kts 302°
2026-04-25 09:24 55.59387 12.72080 769 ft 131 kts 302°
2026-04-25 09:24 55.59882 12.70749 590 ft 129 kts 303°
2026-04-25 09:24 55.60365 12.69445 416 ft 128 kts 304°
2026-04-25 09:25 55.60866 12.68098 249 ft 131 kts 303°
2026-04-25 09:25 55.61370 12.66738 72 ft 131 kts 303°
2026-04-25 09:25 55.61782 12.65621 21 ft 80 kts 303°
2026-04-25 09:25 55.62041 12.64926 22 ft 51 kts 303°
2026-04-25 09:26 55.62204 12.64504 19 ft 24 kts 310°
2026-04-25 09:26 55.62341 12.64429 19 ft 12 kts 11°
2026-04-25 09:26 55.62396 12.64453 19 ft 1 kts 14°
2026-04-25 09:26 55.62400 12.64455 19 ft 2 kts 14°
2026-04-25 09:27 55.62441 12.64475 20 ft 8 kts 20°
2026-04-25 09:27 55.62481 12.64504 20 ft 5 kts 19°
2026-04-25 09:27 55.62510 12.64535 21 ft 5 kts 46°
2026-04-25 09:27 55.62514 12.64542 20 ft 0 kts 48°
2026-04-25 09:28 55.62504 12.64522 20 ft 2 kts 48°
2026-04-25 09:28 55.62494 12.64499 20 ft 2 kts 93°
2026-04-25 09:28 55.62489 12.64508 20 ft 5 kts 118°
2026-04-25 09:28 55.62467 12.64561 21 ft 5 kts 123°
2026-04-25 09:29 55.62446 12.64619 22 ft 6 kts 125°
2026-04-25 09:29 55.62421 12.64685 23 ft 8 kts 123°
2026-04-25 09:29 55.62390 12.64765 22 ft 8 kts 122°
2026-04-25 09:29 55.62357 12.64856 21 ft 10 kts 123°
2026-04-25 09:30 55.62315 12.64969 19 ft 11 kts 123°
2026-04-25 09:30 55.62279 12.65071 22 ft 9 kts 117°
2026-04-25 09:30 55.62286 12.65163 21 ft 7 kts 56°
2026-04-25 09:30 55.62325 12.65194 20 ft 6 kts
2026-04-25 09:31 55.62368 12.65194 21 ft 6 kts 358°
2026-04-25 09:31 55.62399 12.65188 20 ft 7 kts 344°
2026-04-25 09:31 55.62425 12.65088 19 ft 5 kts 270°
2026-04-25 09:31 55.62425 12.65064 19 ft 1 kts 270°
2026-04-25 09:32 55.62425 12.65047 19 ft 3 kts 269°
2026-04-25 09:32 55.62425 12.65038 19 ft 0 kts 269°